Location: Kawakawa
(35.3830°S, 174.0670°E)
Time: 02:22:39
(UTC+12:00)

Cosmos 1933 - Pass Details

Date: 24 January 2019
Orbit: 547 x 564 km, 82.5° (Epoch: 19 April)

Event Time Altitude Azimuth Distance (km) Brightness Sun altitude
Exits shadow 23:00:48 45° 299° (WNW) 787 4.1 -24.2°
Maximum altitude 23:01:34 52° 261° (W) 716 4.0 -24.3°
Drops below altitude 10° 23:05:38 10° 184° (S) 1,888 6.7 -24.8°
Sets 23:07:54 0° 179° (S) 2,795 7.7 -25.1°
